www.pogodaiklimat.ru

Погода и климат >> Архив погоды >> Ямайка >> Kingston


АРХИВ ПОГОДЫ в Kingston

Время (UTC), дата Ветер
(напр.,м/с)
 
Видим.   Явления Облачность Т
(С)
Тd
(С)
f
(%)
Тe
(С)
Тes
(С)
Комфортность P
(гПа)
Po
(гПа)
Тmin
(С)
Tmax
(С)
R
(мм)
R24
(мм)
S
(см)
00 7.12 ЮВ 6 28 км мгла 1/1 660 м
[Cu Sc]
+28.6 +22.7 70 +38 +38 очень
душно
1016.6 1016.1 +23.3 +33.0
03 7.12 СЗ 2 28 км мгла 1/1 660 м
[Cu Sc]
+25.9 +19.4 67 +31 +31 очень
душно
1018.5 1018.0
06 7.12 СЗ 2 20 км мгла 6/1 660 м
[Cu Sc Ci sp]
+25.6 +21.4 78 +33 +33 очень
душно
1017.4 1016.9 +23.3 +33.0
09 7.12 СЗ 2 20 км мгла 6/1 660 м
[Cu Sc Ci sp]
+24.6 +18.6 69 +29 +29 душно 1016.4 1015.9
12 7.12 СЗ 2 28 км мгла 4/4 660 м
[Cu Sc Ac cuf]
+25.0 +22.2 84 +32 +32 очень
душно
1018.6 1018.1 +23.8 +33.0
15 7.12 З 2 28 км мгла 3/3 660 м
[Cu Sc Ac lent]
+28.9 +18.6 54 +34 +40 очень
душно
1020.4 1019.9
18 7.12 ЮВ 8 28 км мгла 6/6 600 м
[Cu Sc Ac cuf]
+29.7 +24.3 73 +42 +43 опасность
перегрева
1018.0 1017.5 +23.8 +31.9
21 7.12 ЮВ 8 28 км мгла 1/1 660 м
[Cu Sc]
+29.4 +19.8 56 +35 +36 очень
душно
1016.4 1015.9
00 8.12 ЮВ 4 28 км мгла 1/1 660 м
[Cu Sc Ci ing]
+28.9 +20.8 62 +36 +36 очень
душно
1017.8 1017.3 +23.8 +31.9
03 8.12 С 3 28 км мгла 1/1 660 м
[Cu Sc]
+26.2 +18.5 63 +31 +31 очень
душно
1018.5 1018.0
06 8.12 С 2 28 км мгла 1/1 660 м
[Cu Sc]
+24.5 +16.2 60 +33 +33 очень
душно
1017.5 1017.0 +23.8 +31.9
09 8.12 С 4 28 км мгла 1/1 660 м
[Cu Sc]
+25.4 +16.4 57 +29 +29 душно 1016.4 1015.9
12 8.12 С 4 28 км мгла 1/1 660 м
[Cu Sc]
+25.0 +21.3 80 +32 +32 очень
душно
1017.3 1016.8 +22.4 +31.9
15 8.12 СЗ 2 26 км мгла 3/3 660 м
[Cu Sc]
+28.9 +18.9 55 +34 +40 очень
душно
1018.9 1018.4
18 8.12 ЮВ 6 26 км мгла 3/3 720 м
[Cu hum]
+31.0 +23.6 65 +42 +46 опасность
перегрева
1016.7 1016.2 +23.6 +31.6
21 8.12 ЮВ 6 26 км мгла 4/4 660 м
[Sc diur, vesp Ac cuf]
+29.3 +20.9 61 +37 +37 очень
душно
1015.1 1014.6
00 9.12 ЮВ 7 20 км мгла 3/1 660 м
[Cu Sc Ac lent Ci fib]
+28.5 +22.7 71 +38 +38 очень
душно
1016.5 1016.0 +22.4 +31.6
03 9.12 С 2 20 км мгла 3/1 660 м
[Cu Sc Ci fib]
+26.6 +18.6 62 +32 +32 очень
душно
1017.6 1017.1
06 9.12 С 3 20 км мгла 3/1 660 м
[Cu Sc Ci fib]
+25.5 +22.6 84 +34 +34 очень
душно
1016.0 1015.5 +22.4 +31.6
09 9.12 СЗ 3 20 км мгла 1/1 660 м
[Cu Sc Ci fib]
+24.1 +19.0 73 +29 +29 душно 1015.8 1015.3
12 9.12 СЗ 4 25 км мгла 1/1 660 м
[Cu Sc]
+24.0 +21.6 86 +31 +31 очень
душно
1017.1 1016.6 +22.4 +31.6
15 9.12 СЗ 2 26 км мгла 3/3 660 м
[Cu Sc]
+29.0 +18.1 52 +34 +40 очень
душно
1017.9 1017.4
18 9.12 ЮВ 3 20 км осадки на расстоянии {дождь} 8/8 660 м
[Cu Sc Ac lent]
+30.1 +24.9 74 +43 +45 опасность
перегрева
1015.4 1014.9 +22.4 +31.4 0.1
21 9.12 В 8 26 км мгла {дождь} 6/6 540 м
[Cu Sc Ac lent]
+28.4 +20.3 62 +35 +35 очень
душно
1014.5 1014.0
00 10.12 В 6 26 км {дождь} 3/3 660 м
[Cu Sc Ac lent]
+28.0 +22.9 74 +37 +37 очень
душно
1015.6 1015.1 +22.4 +31.4 0.0
03 10.12 С 3 24 км мгла 1/1 720 м
[Cu Sc Ci fib]
+26.3 +19.6 67 +32 +32 очень
душно
1016.7 1016.2
06 10.12 С 2 26 км в посл. час ливневой дождь 5/4 720 м
[Cu Sc Ci fib]
+24.4 +23.6 95 +33 +33 очень
душно
1015.9 1015.4 +22.4 +31.4 0.0
09 10.12 нст 1 22 км в посл. час ливневой дождь 5/4 100 м
[Cu Sc As op]
+24.6 +24.6 100 +34 +34 очень
душно
1014.9 1014.4
12 10.12 В 5 20 км мгла {ливн. осадки} 1/1 660 м
[Cu Sc Ac lent Ci sp]
+26.7 +23.9 85 +37 +37 очень
душно
1016.4 1015.9 +23.4 +31.4 4
15 10.12 В 5 18 км осадки на расстоянии {ливн. осадки} 8/6 600 м
[Cu Sc Ac As Ci sp]
+27.5 +23.8 80 +38 +39 очень
душно
1018.3 1017.8
18 10.12 ЮВ 7 22 км мгла {ливн. осадки} 1/1 660 м
[Cu Sc Ci sp]
+30.0 +23.1 67 +40 +43 очень
душно
1016.2 1015.7 +23.4 +30.5 0.4
21 10.12 ЮВ 6 25 км мгла 1/1 660 м
[Cu Sc Ci sp]
+29.0 +20.9 62 +36 +37 очень
душно
1014.9 1014.4
00 11.12 ЮВ 6 20 км мгла 1/1 720 м
[Cu hum Ci sp]
+27.8 +23.1 76 +37 +37 очень
душно
1017.0 1016.5 +23.4 +30.5
03 11.12 С 2 15 км мгла 3/1 660 м
[Cu hum Ci sp]
+26.3 +18.8 63 +31 +31 душно 1017.9 1017.4
06 11.12 СЗ 4 22 км мгла 1/1 720 м
[Cu hum]
+24.7 +22.4 87 +32 +32 очень
душно
1016.8 1016.4 +23.4 +30.5
09 11.12 СЗ 2 25 км мгла 1/1 720 м
[Cu hum]
+24.1 +18.4 70 +29 +29 душно 1016.1 1015.7
12 11.12 СЗ 3 25 км мгла 1/1 660 м
[Cu Sc]
+24.4 +20.6 79 +30 +30 очень
душно
1017.9 1017.5 +23.4 +30.5
15 11.12 З 2 25 км мгла 3/3 660 м
[Cu Sc]
+28.9 +17.6 50 +33 +39 очень
душно
1019.4 1018.9
18 11.12 ЮВ 3 25 км мгла 3/3 660 м
[Cu Sc]
+31.0 +24.1 67 +43 +50 опасность
перегрева
1016.5 1016.0 +23.4 +31.5
21 11.12 ЮВ 4 20 км осадки на расстоянии 5/5 600 м
[Cu Sc]
+29.2 +20.0 58 +36 +36 очень
душно
1016.0 1015.5
00 12.12 С 4 22 км мгла 4/4 660 м
[Cu Sc]
+28.0 +22.2 71 +37 +37 очень
душно
1016.8 1016.3 +23.4 +32.0
03 12.12 СЗ 4 22 км мгла 1/1 660 м
[Cu Sc]
+26.2 +18.5 63 +31 +31 очень
душно
1018.0 1017.5
06 12.12 нст 1 15 км мгла 1/1 660 м
[Cu Sc]
+25.1 +21.7 81 +32 +32 очень
душно
1017.1 1016.6 +23.4 +32.0
09 12.12 СЗ 3 15 км мгла 1/1 660 м
[Cu Sc]
+25.1 +18.4 66 +30 +30 душно 1016.0 1015.5
12 12.12 СЗ 3 28 км мгла 1/1 660 м
[Sc diur, vesp]
+24.0 +21.7 87 +31 +31 очень
душно
1017.1 1016.6 +23.0 +32.0
15 12.12 нст 1 14 км осадки на расстоянии 9/9 600 м
[Cu Sc]
+27.8 +18.7 58 +33 +34 очень
душно
1018.4 1017.9
18 12.12 ЮВ 6 12 км слабый дождь 9/9 480 м
[Sc diur, vesp As op]
+28.6 +20.8 63 +36 +36 очень
душно
1016.5 1016.0 +23.0 +28.8 0.0
21 12.12 СЗ 4 6000 м осадки на расстоянии {дождь} 8/8 540 м
[Sc diur, vesp]
+27.0 +19.5 64 +33 +33 очень
душно
1015.2 1014.7
00 13.12 С 3 20 км мгла {дождь} 8/6 600 м
[Sc diur, vesp]
+26.4 +23.0 82 +35 +35 очень
душно
1016.2 1015.7 +23.0 +28.8 0.0
03 13.12 нст 1 20 км мгла 3/3 660 м
[Sc diur, vesp]
+25.1 +20.4 75 +31 +31 очень
душно
1016.9 1016.4
06 13.12 С 2 20 км мгла 4/4 660 м
[Cu Sc]
+24.3 +21.8 86 +31 +31 очень
душно
1016.0 1015.5 +23.0 +28.8
09 13.12 С 3 20 км мгла 5/5 660 м
[Cu Sc]
+24.5 +19.0 71 +29 +29 душно 1015.3 1014.8
12 13.12 С 2 20 км мгла 1/1 660 м
[Cu Sc]
+24.3 +21.8 86 +31 +31 очень
душно
1016.3 1015.8 +23.0 +28.8
15 13.12 СЗ 3 22 км осадки на расстоянии 8/5 660 м
[Cu Sc Ac As]
+27.9 +18.8 58 +33 +35 очень
душно
1017.9 1017.4
18 13.12 В 11 22 км осадки на расстоянии 8/6 600 м
[Cu Sc Ac lent]
+30.1 +22.4 63 +39 +39 очень
душно
1015.6 1015.1 +23.0 +31.4

 

Местоположение метеостанции Kingston (Ямайка): широта 17.93 долгота -76.78 высота над уровнем моря 14 м.

В архиве по умолчанию представлена погода в Kingston за последнюю неделю. Архивные данные за месяц целиком и за предыдущие месяцы, начиная с января 2011 года, Вы можете получить, выбрав интересующий диапазон дат из раскрывающегося списка и нажав кнопку "Ввод!".


*Определитесь, кто Вы:
робот инопланетянин человек

Внимание! Время в таблицах - всемирное. Для получения местного времени необходимо прибавить поправку, которая в Kingston равна -5 ч.

Смотрите также архив погоды в соседних городах и на ближайших метеорологических станциях:

Погода в Montego Bay (Ямайка) (135 км)
Погода в Cabo Cruz (Куба) (236 км)
Погода в Santiago de Cuba (Куба) (247 км)
Погода в Santiago de Cuba (Куба) (267 км)
Погода в Santa Cruz Del Sur (Куба) (336 км)
Погода в Puerto Padre (Куба) (364 км)
Погода в Cabo Lurecia (Куба) (370 км)
Погода в Punta Lucrecia (Куба) (370 км)
Погода в Punta de Maisi (Куба) (378 км)
Погода в Camaguey (Куба) (402 км)

Пояснения к столбцам:

Ветер - указаны скорость ветра в м/с - средняя за 10 мин, порывы в срок и между сроками (в фигурных скобках) и направление, откуда дует ветер: С - северный, СВ - северо-восточный, В - восточный, ЮВ - юго-восточный, Ю - южный, ЮЗ - юго-западный, З - западный, СЗ - северо-западный.
Видимость - горизонтальная дальность видимости в метрах или километрах. При видимости от 1 до 10 км при отсутствии осадков обычно наблюдается дымка, при ухудшении видимости до 1 км и менее - туман. В сухую погоду видимость может ухудшаться дымом, пылью или мглою.
Явления - указаны атмосферные явления, наблюдавшиеся в срок или в последний час перед сроком; фигурными скобками обозначены явления, наблюдавшиеся между сроками (за 1-3 часа до срока); квадратными скобками обозначены град или гололедные отложения с указанием их диаметра в мм.
Облачность - указаны через наклонную черту общая и нижняя облачность в баллах и высота нижней границы облаков в метрах; квадратными скобками обозначены формы облаков: Ci - перистые, Cs - перисто-слоистые, Cc - перисто-кучевые, Ac - высококучевые, As - высокослоистые, Sc - слоисто-кучевые, Ns - слоисто-дождевые, Cu - кучевые, Cb - кучево-дождевые. Подробнее классификацию облаков см. в Атласе облаков (PDF).
T - Температура воздуха - температура, измеренная на высоте 2 м над землей.
Td - Температура точки росы - температура, при понижении до которой содержащийся в воздухе водяной пар достигнет насыщения.
f - Относительная влажность воздуха - влажноcть воздуха, измеренная на высоте 2 м над землей.
Te - Эффективная температура - температура, которую ощущает одетый по сезону человек в тени. Характеристика душности погоды. При расчете учитывается влияние влажности воздуха и скорости ветра на теплоощущения человека.
Tes - Эффективная температура на солнце - температура, которую ощущает человек, с поправкой на солнечный нагрев. Характеристика знойности погоды. Зависит от высоты солнца над горизонтом, облачности и скорости ветра. Ночью, в пасмурную погоду, а также при ветре 12 м/с и более поправка равна нулю.
P - Атмосферное давление - приведенное к уровню моря атмосферное давление.
Po - Атмосферное давление - измеренное на уровне метеостанции атмосферное давление.
Tmin - Минимальная температура - минимум температуры воздуха на высоте 2 м над землей.
Tmax - Максимальная температура - максимум температуры воздуха на высоте 2 м над землей.
R - Количество осадков - Количество выпавших осадков за период времени, мм. При наведении курсора мыши на число - период времени, за который выпало указанное количество осадков.
R24 - Количество осадков - Количество выпавших осадков за 24 часа, мм.
S - Снежный покров - Высота снежного покрова, см. При наведении курсора мыши на число - состояние снежного покрова и степень покрытия местности в баллах.